Location: Observatoire
(46.1952°N, 5.3391°E)
Time: 23:33:30
(UTC+01:00)

Courier 1B Rocket - Pass Details

Date: 23 February 2026
Orbit: 920 x 1201 km, 28.2° (Epoch: 11 March)

Event Time Altitude Azimuth Distance (km) Brightness Sun altitude
Rises 21:15:45 0° 243° (WSW) 3,545 8.5 -31.4°
Reaches altitude 10° 21:20:51 10° 207° (SSW) 2,618 7.3 -32.2°
Enters shadow 21:21:07 10° 204° (SSW) 2,601 7.2 -32.3°
Maximum altitude 21:22:14 11° 194° (SSW) 2,573 - -32.4°
Drops below altitude 10° 21:23:38 10° 181° (S) 2,637 - -32.7°
Sets 21:28:51 0° 146° (SE) 3,637 - -33.5°
